Location: Hannover
(52.3723°N, 9.7339°E)
Time: 22:13:17
(UTC+02:00)

ISS - Pass Details

Date: 26 March 2019
Orbit: 408 x 410 km, 51.6° (Epoch: 21 April)

Event Time Altitude Azimuth Distance (km) Brightness Sun altitude
Rises 19:22:25 0° 233° (SW) 2,330 0.7 -6.6°
Reaches altitude 10° 19:24:35 10° 225° (SW) 1,471 -0.5 -6.9°
Maximum altitude 19:27:40 37° 156° (SSE) 650 -3.1 -7.4°
Drops below altitude 10° 19:30:45 10° 87° (E) 1,476 -1.6 -7.8°
Enters shadow 19:30:49 10° 86° (E) 1,497 -1.6 -7.8°
